Wetbulb
61.95 61.30 61.05 60.86 61.04 60.76 60.09 59.69 59.91 60.16 60.54 61.69 62.22 62.23 61.80 60.99 60.29 60.03 59.51 58.93 58.33 58.46
62.38 62.25 61.57 61.15 60.45 60.37 60.03 60.46 59.96 60.64 60.74 61.46 61.96 62.09 60.74 59.79 59.56 60.33 59.71 59.35 59.42 58.91
62.32 62.24 61.89 61.02 60.65 59.56 59.68 61.33 60.45 60.05 60.69 61.24 62.47 62.02 60.96 59.73 61.02 60.35 60.07 61.15 60.80 59.97
61.93 61.87 61.26 60.93 60.21 59.64 59.67 59.29 59.65 60.26 61.40 61.95 61.83 61.65 60.96 60.47 60.68 60.44 60.55 60.41 60.37 61.04
60.96 61.82 60.93 60.32 61.48 59.79 58.85 59.42 59.59 60.50 61.88 63.18 62.74 60.81 60.98 60.44 60.31 60.51 60.28 60.62 60.91 60.90
61.59 62.30 60.71 60.36 61.26 59.92 59.77 58.76 60.99 61.96 62.99 62.84 62.09 61.48 60.75 61.23 61.28 60.86 60.15 60.64 60.75 60.65
61.94 62.21 60.90 60.45 61.62 59.96 59.89 58.49 61.42 61.57 63.16 62.56 62.76 62.63 61.58 62.83 61.45 60.93 60.90 61.40 61.88 61.87
61.72 62.96 62.05 62.19 60.59 60.41 58.91 60.91 61.99 61.78 62.59 60.35 59.66 60.75 61.81 62.00 61.47 60.72 60.59 61.10 61.02 61.90
61.32 63.44 61.92 61.82 61.59 61.75 60.29 61.48 60.96 61.42 60.22 58.21 58.70 50.24 52.81 59.49 61.63 61.72 60.79 61.10 60.32 60.07
62.05 60.93 60.51 62.00 61.04 60.22 60.00 61.28 60.98 60.79 58.59 56.57 54.97 47.38 48.85 52.09 62.48 61.34 60.79 59.33 61.17 60.58
61.89 61.55 61.86 61.20 59.29 59.77 60.03 60.14 60.45 60.18 58.13 55.86 53.78 47.38 46.67 52.29 61.98 62.39 61.55 60.97 60.79 60.44
61.93 61.10 61.45 61.51 59.61 59.75 59.85 59.92 59.34 60.12 57.77 56.08 53.96 47.92 46.13 57.82 61.84 61.84 61.25 61.57 62.03 61.36
61.89 62.06 60.76 60.16 59.73 60.41 59.94 61.05 60.67 60.79 58.59 55.08 55.36 47.58 45.94 55.32 61.83 60.03 59.29 59.07 59.05 52.75
61.00 60.77 61.59 60.88 60.84 60.69 60.50 60.63 60.45 59.73 58.60 57.90 56.18 53.22 45.76 50.11 61.15 60.27 58.91 58.46 58.56 56.16
MSLP
1003.92 1004.51 1004.99 1005.39 1005.89 1006.43 1006.94 1007.12 1007.10 1007.26 1007.35 1007.52 1007.60 1007.67 1007.67 1007.83 1007.95 1007.87 1008.04 1008.19 1008.39 1008.55
1004.23 1004.67 1005.25 1005.60 1005.82 1006.30 1006.63 1006.88 1007.05 1007.15 1007.22 1007.37 1007.42 1007.46 1007.56 1007.67 1007.64 1007.56 1007.71 1007.87 1007.99 1008.09
1004.72 1004.95 1005.34 1005.77 1006.14 1006.30 1006.62 1006.77 1007.01 1007.00 1007.05 1007.12 1007.11 1007.13 1007.37 1007.44 1007.35 1007.46 1007.50 1007.56 1007.56 1007.71
1004.69 1005.04 1005.43 1005.78 1006.02 1006.30 1006.59 1006.70 1006.84 1006.78 1006.77 1006.88 1006.88 1006.99 1007.25 1007.24 1007.25 1007.43 1007.47 1007.29 1007.48 1007.48
1004.86 1005.15 1005.61 1005.82 1005.99 1006.33 1006.55 1006.62 1006.68 1006.62 1006.62 1006.62 1007.01 1007.24 1007.17 1007.36 1007.19 1007.23 1007.35 1007.30 1007.25 1007.56
1004.91 1005.22 1005.70 1005.92 1006.04 1006.35 1006.49 1006.52 1006.58 1006.55 1006.63 1006.92 1007.14 1007.25 1007.34 1007.24 1007.32 1007.45 1007.50 1007.34 1007.25 1007.39
1004.84 1005.29 1005.71 1005.92 1006.08 1006.39 1006.41 1006.53 1006.56 1006.69 1006.91 1007.10 1007.26 1007.31 1007.31 1007.33 1007.50 1007.65 1007.61 1007.38 1007.35 1007.44
1004.87 1005.15 1005.48 1005.90 1006.16 1006.29 1006.45 1006.49 1006.50 1006.91 1007.14 1007.47 1007.75 1007.83 1007.78 1007.66 1007.71 1007.61 1007.52 1007.47 1007.66 1007.82
1004.82 1005.21 1005.59 1005.97 1006.09 1006.25 1006.52 1006.50 1006.68 1007.09 1007.55 1007.94 1008.14 1008.28 1008.02 1007.84 1007.83 1007.76 1007.96 1008.10 1008.29 1008.69
1004.79 1005.30 1005.56 1005.89 1006.18 1006.42 1006.66 1006.67 1007.06 1007.54 1007.82 1008.28 1008.53 1008.59 1008.15 1008.09 1008.10 1008.22 1008.37 1008.66 1008.76 1009.27
1004.72 1005.22 1005.62 1006.00 1006.35 1006.69 1006.89 1007.07 1007.44 1007.93 1008.17 1008.53 1008.89 1008.69 1008.43 1008.32 1008.28 1008.46 1008.71 1008.95 1009.24 1009.67
1004.50 1005.08 1005.69 1006.13 1006.47 1006.75 1007.04 1007.33 1007.62 1008.00 1008.43 1008.77 1009.20 1008.93 1008.72 1008.57 1008.72 1008.85 1009.15 1009.39 1009.77 1010.12
1004.32 1004.90 1005.63 1006.16 1006.49 1006.77 1007.13 1007.43 1007.65 1008.18 1008.41 1008.70 1009.17 1009.32 1009.10 1008.97 1009.07 1009.34 1009.65 1010.02 1010.35 1010.68
1004.31 1004.90 1005.44 1006.03 1006.49 1006.83 1007.13 1007.45 1007.83 1008.24 1008.64 1008.93 1009.25 1009.54 1009.33 1009.23 1009.42 1009.70 1010.16 1010.61 1011.05 1011.62
Wind_Speed
8 5 4 5 5 4 4 4 4 3 4 3 3 3 1 1 2 3 3 3 4 4
6 7 7 6 5 4 5 4 4 5 4 3 3 3 2 2 3 3 2 3 4 3
8 7 6 5 5 7 5 4 5 5 5 5 4 4 4 3 3 3 3 1 4 3
7 7 6 5 6 6 5 5 5 5 5 5 2 3 2 3 3 4 4 3 2 3
7 7 6 4 7 6 4 4 4 6 0 4 4 4 2 2 1 1 3 5 4 2
7 7 6 5 6 6 4 4 2 5 5 5 4 3 2 3 5 4 4 3 2 5
7 7 7 6 5 5 5 3 4 5 5 5 4 3 3 4 5 6 4 5 6 6
6 6 7 6 5 6 4 4 6 5 6 7 6 4 4 4 5 5 6 6 5 6
6 7 6 5 4 5 5 5 5 6 7 6 4 6 8 5 5 5 6 6 8 10
8 8 6 6 6 6 5 4 5 7 7 6 5 6 8 7 4 5 5 6 8 10
9 7 6 6 5 4 3 3 4 6 6 6 4 6 8 4 5 5 6 6 9 12
10 9 7 6 7 4 5 4 3 6 6 6 5 7 9 5 5 7 7 6 9 11
10 10 8 7 6 3 3 5 5 5 6 7 6 6 7 5 5 7 6 6 9 11
7 8 9 7 4 4 4 5 5 7 5 6 6 3 6 5 5 6 6 6 7 6
Wind_Direction
110 115 111 113 128 140 151 167 178 155 145 177 194 211 229 196 220 245 219 187 192 187
88 90 109 110 120 127 139 153 171 167 167 207 220 194 222 240 239 226 240 207 199 195
120 110 112 121 138 136 150 161 168 186 196 218 230 220 192 220 231 212 265 252 226 212
139 136 135 128 124 125 133 148 177 207 212 224 232 181 170 224 209 218 214 278 205 209
129 120 115 116 127 142 157 189 215 233 268 130 101 84 94 332 188 252 228 225 233 139
142 123 137 156 142 159 185 218 304 130 126 99 102 108 103 43 65 29 52 24 57 143
145 143 149 160 167 162 197 206 120 123 115 104 84 73 59 56 64 71 52 50 46 112
141 138 140 167 179 185 183 163 116 138 97 80 67 38 41 88 87 89 77 58 58 70
146 133 138 154 153 126 138 136 129 105 103 93 76 7 56 53 86 75 70 67 89 107
130 138 147 143 131 133 140 118 117 107 111 98 86 29 34 28 113 102 88 85 104 104
137 144 135 134 135 113 107 142 134 120 110 108 67 26 11 52 113 107 91 98 116 117
150 142 142 138 145 145 118 102 108 128 126 122 85 21 19 79 95 96 94 91 113 125
152 147 139 146 155 156 148 161 150 122 134 125 112 45 28 61 105 97 95 84 100 111
131 130 145 146 147 136 128 121 125 119 126 114 114 57 40 94 109 118 112 112 116 124